Regional Weather Roundup
Issued by NWS Kansas City/Pleasant Hill, MO

Current Version | Previous Version | Text Only | Print | Product List | Glossary On
Versions: 1 2 3 4 5 6 7 8 9 10 11 12 13 14 15 16 17 18 19 20 21 22 23 24 25 26 27 28 29 30 31 32 33 34 35 36 37 38 39 40 41 42 43 44 45 46 47 48 49 50
192
ASUS43 KEAX 242210
RWREAX

WEATHER ROUNDUP FOR EASTERN KANSAS AND NORTHWEST MISSOURI
NATIONAL WEATHER SERVICE KANSAS CITY/PLEASANT HILL MO
400 PM CST SAT FEB 24 2018

KSZ040-057-103>105-MOZ028-029-037-043-242300-
...KANSAS CITY METROPOLITAN AREA...

CITY           SKY/WX    TMP DP  RH WIND       PRES   REMARKS
K.C. INTL      DRIZZLE   38  37  97 W10       29.69R FOG     WCI  31
K.C. DOWNTOWN  CLOUDY    41  38  89 W13       29.69R WCI  34
LEES SUMMIT    LGT RAIN  41  41 100 W10       29.69R FOG     WCI  35
OLATHE - IXD   CLOUDY    39  38  96 W14G24    29.72R FOG     WCI  31
OLATHE - OJC   CLOUDY    38  38 100 W12       29.70R WCI  30
LAWRENCE       CLOUDY    38  37  97 W15       29.73R FOG     WCI  29

$$

MOZ001>008-011>017-020>025-030>033-038>040-044>046-053-054-242300-
...NORTHERN AND CENTRAL MISSOURI...

CITY           SKY/WX    TMP DP  RH WIND       PRES   REMARKS
ST. JOSEPH     CLOUDY    34  34 100 W12       29.73R WCI  25
MOSBY          CLOUDY    39  39 100 W9        29.68R FOG     WCI  33
WARRENSBURG    CLOUDY    45  45 100 W10       29.66R
WHITEMAN AFB   LGT RAIN N/A N/A N/A W10       29.62R
CLINTON        LGT RAIN  48  48 100 W12       29.67R
SEDALIA        CLOUDY    50  50 100 SW7       29.65R
WARSAW         NOT AVBL
CHILLICOTHE      N/A     41  41 100 CALM      29.66F
KIRKSVILLE     FOG       40  40 100 SE10      29.63F VSB 3/4 WCI  33

$$

MOZ041-047>049-056>058-063>065-088>090-097-242300-
...EASTERN AND SOUTHERN MISSOURI...

CITY           SKY/WX    TMP DP  RH WIND       PRES   REMARKS
ST. LOUIS INTL RAIN      49  49 100 SE9       29.75F FOG
SPIRIT OF STL  RAIN      48  48 100 E3        29.72F FOG
COLUMBIA       CLOUDY    49  48  97 SE12      29.62R
JEFFERSON CITY CLOUDY    50  48  93 SE6       29.63S
ROLLA          CLOUDY    51  51 100 E7        29.63F FOG
OSAGE BEACH    CLOUDY    55  53  93 SE6       29.62F
SPRINGFIELD    CLOUDY    56  55  97 SW7       29.65S
BRANSON        PTSUNNY   59  59 100 SW3       29.67R
JOPLIN         CLOUDY    46  46 100 W15G22    29.74R
WEST PLAINS    CLOUDY    54  53  97 CALM      29.67R

$$

IAZ060-094-KSZ022-034>040-054-083-096-NEZ052-066-093-242300-
...KANSAS...SOUTHEAST NEBRASKA AND IOWA...

CITY           SKY/WX    TMP DP  RH WIND       PRES   REMARKS
TOPEKA         CLOUDY    37  36  96 W13       29.74R WCI  29
MANHATTAN      CLOUDY    36  31  82 W12       29.77R WCI  28
EMPORIA        CLOUDY    35  32  88 W16G22    29.76R WCI  25
CHANUTE        CLOUDY    41  37  86 W20       29.78R WCI  32
WICHITA        CLOUDY    40  33  76 W16G26    29.82R WCI  31
OMAHA          CLOUDY    30  26  85 W12       29.69F WCI  20
LINCOLN        CLOUDY    29  25  85 W9        29.72F WCI  20
FALLS CITY     CLOUDY    31  29  92 NW10      29.73S FOG     WCI  22
LAMONI         LGT RAIN  34  33  96 SW8       29.66R VSB 1   WCI  27
DES MOINES     DRZL/FOG  34  33  96 CALM      29.65F VSB 1

$$





USA.gov is the U.S. government's official web portal to all federal, state and local government web resources and services.